{"data":{"norad_id":47821,"intl_designator":"2021-018AL","name":"STARLINK-2406","alt_names":[],"object_type":"PAYLOAD","status":"ACTIVE","operator":null,"country":"US","launch_date":"2021-03-11","launch_site_code":"AFETR","launch_vehicle":null,"mission":null,"orbit_class":"UNKNOWN","rcs_meters":null,"size_class":null,"mass_kg":null,"dimensions":null,"purposes":["comms"],"wikipedia_slug":null,"has_3d_model":false,"image_url":null,"decayed_at":null,"tle_current":{"epoch":"2026-05-24T16:01:22.261728Z","epoch_age_seconds":104584,"freshness":"FRESH","line1":"1 47821U 21018AL  26144.66761877 -.00000355  00000+0  30862-6 0  9997","line2":"2 47821  53.1576 249.5419 0001178  92.1590 267.9547 15.31694661288367","mean_motion":15.31694661,"eccentricity":0.0001178,"inclination_deg":53.1576,"raan_deg":249.5419,"arg_perigee_deg":92.159,"mean_anomaly_deg":267.9547,"bstar":3.0862e-7,"rev_number":28836,"period_min":94.013515661135,"perigee_km":469.9491109682,"apogee_km":471.56271013792,"semimajor_km":6848.8929105531,"source":"CELESTRAK","updated_at":"2026-05-25T13:38:16.603461Z"}}}